This demonstration page uses our WeatherBlox Daily Observations layout. Learn more.

40.92945, -100.16068

Hourly Observations for December 13, 2017

Temp ( °F °C ) Dew Point ( °F °C ) Humidity (%) Winds ( mph kmh ) Pressure ( in mb ) Visibility ( mi km ) Precip ( " mm )
12:15 am 00:15 Clear 30 -0.9 19 -7 64 64 NNW 10 17 29.91 1013 10 16.09344 0 0
12:35 am 00:35 Clear 32 0 20 -6.6 62 62 NW 13 20 29.91 1013 10 16.09344 0 0
12:55 am 00:55 Mostly Cloudy 31 -0.4 20 -6.7 63 63 WNW 9 15 29.91 1013 10 16.09344 0 0
1:15 am 01:15 Partly Cloudy 33 0.6 20 -6.4 60 60 WNW 13 20 29.91 1013 10 16.09344 0 0
1:35 am 01:35 Clear 32 0.2 20 -6.5 61 61 WNW 15 24 29.91 1013 10 16.09344 0 0
1:55 am 01:55 Clear 37 2.5 21 -6.1 53 53 NW 21 33 29.88 1012 10 16.09344 0 0
2:15 am 02:15 Clear 38 3.2 20 -6.7 49 49 WNW 17 28 29.88 1012 10 16.09344 0 0
2:35 am 02:35 Mostly Cloudy 38 3.4 19 -7 47 47 WNW 18 30 29.88 1012 10 16.09344 0 0
2:55 am 02:55 Cloudy 37 2.6 19 -7 50 50 WNW 17 28 29.88 1012 10 16.09344 0 0
3:15 am 03:15 Cloudy 37 2.8 20 -6.9 49 49 WNW 17 28 29.91 1013 10 16.09344 0 0
3:35 am 03:35 Cloudy 37 2.5 20 -6.7 51 51 WNW 16 26 29.91 1013 10 16.09344 0 0
3:55 am 03:55 Cloudy 37 2.5 19 -7 50 50 WNW 17 28 29.91 1013 10 16.09344 0 0
4:20 am 04:20 Cloudy 37 2.6 19 -7 50 50 WNW 15 24 29.94 1014 10 16.09344 0 0
4:35 am 04:35 Cloudy 37 2.6 19 -7 50 50 NW 14 22 29.94 1014 10 16.09344 0 0
4:55 am 04:55 Mostly Cloudy 38 3.3 20 -6.8 48 48 WNW 17 28 29.94 1014 10 16.09344 0 0
5:15 am 05:15 Partly Cloudy 38 3.6 20 -6.7 47 47 WNW 14 22 29.94 1014 10 16.09344 0 0
5:35 am 05:35 Clear 41 5.2 20 -6.6 43 43 WNW 16 26 29.94 1014 10 16.09344 0 0
5:55 am 05:55 Clear 42 5.6 20 -6.6 41 41 WNW 16 26 29.94 1014 10 16.09344 0 0
6:15 am 06:15 Clear 42 5.7 20 -6.7 41 41 WNW 14 22 29.91 1013 10 16.09344 0 0
6:35 am 06:35 Clear 42 5.8 20 -6.9 40 40 WNW 13 20 29.91 1013 10 16.09344 0 0
6:55 am 06:55 Clear 46 7.6 20 -6.7 36 36 NNW 25 41 29.91 1013 10 16.09344 0 0
7:15 am 07:15 Clear 49 9.3 19 -7 31 31 NW 24 39 29.91 1013 10 16.09344 0 0
7:35 am 07:35 Clear 48 9 19 -7.2 31 31 NNW 24 39 29.94 1014 10 16.09344 0 0
7:55 am 07:55 Sunny 48 9.1 19 -7.2 31 31 NNW 23 37 29.91 1013 10 16.09344 0 0
8:15 am 08:15 Sunny 47 8.2 19 -7.2 33 33 WNW 14 22 29.97 1015 10 16.09344 0 0
8:35 am 08:35 Sunny 42 5.7 19 -7.2 39 39 WNW 15 24 30 1016 10 16.09344 0 0
8:55 am 08:55 Sunny 43 6 19 -7.3 38 38 WNW 15 24 30 1016 10 16.09344 0 0
9:15 am 09:15 Sunny 45 7.3 19 -7.4 35 35 WNW 17 28 29.97 1015 10 16.09344 0 0
9:35 am 09:35 Sunny 46 7.8 19 -7.1 34 34 WNW 21 33 29.97 1015 10 16.09344 0 0
9:55 am 09:55 Sunny 47 8.2 19 -7.2 33 33 WNW 18 30 30 1016 10 16.09344 0 0
10:15 am 10:15 Sunny 48 8.7 19 -7 33 33 WNW 18 30 30 1016 10 16.09344 0 0
10:35 am 10:35 Sunny 50 9.9 21 -6.3 32 32 NW 17 28 29.97 1015 10 16.09344 0 0
10:55 am 10:55 Sunny 53 11.5 22 -5.5 30 30 NW 23 37 29.97 1015 10 16.09344 0 0
11:15 am 11:15 Sunny 53 11.5 22 -5.5 30 30 NW 31 50 29.97 1015 10 16.09344 0 0
11:35 am 11:35 Sunny 53 11.7 23 -5.2 31 31 NNW 28 44 29.97 1015 10 16.09344 0 0
11:55 am 11:55 Sunny 53 11.6 22 -5.6 30 30 NNW 23 37 29.97 1015 10 16.09344 0 0
12:15 pm 12:15 Sunny 53 11.7 21 -6.2 28 28 NW 28 44 29.97 1015 10 16.09344 0 0
12:35 pm 12:35 Sunny 53 11.7 20 -6.8 27 27 NW 28 44 29.97 1015 10 16.09344 0 0
12:55 pm 12:55 Sunny 53 11.6 19 -7.1 27 27 NNW 28 44 29.94 1014 10 16.09344 0 0
1:15 pm 13:15 Sunny 53 11.5 20 -6.8 27 27 NNW 26 43 29.94 1014 10 16.09344 0 0
1:35 pm 13:35 Sunny 53 11.6 20 -6.5 28 28 NNW 23 37 29.94 1014 10 16.09344 0 0
1:55 pm 13:55 Sunny 53 11.6 20 -6.5 28 28 NNW 28 44 29.94 1014 10 16.09344 0 0
2:15 pm 14:15 Sunny 53 11.5 21 -6.3 28 28 NNW 29 46 29.94 1014 10 16.09344 0 0
2:35 pm 14:35 Sunny 52 11.2 21 -6.3 29 29 NW 29 46 29.94 1014 10 16.09344 0 0
2:55 pm 14:55 Sunny 51 10.8 21 -5.9 31 31 NNW 28 44 29.94 1014 10 16.09344 0 0
3:15 pm 15:15 Sunny 52 11 22 -5.4 31 31 NNW 23 37 29.94 1014 10 16.09344 0 0
3:35 pm 15:35 Sunny 50 10 22 -5.3 34 34 NNW 22 35 29.94 1014 10 16.09344 0 0
3:55 pm 15:55 Sunny 51 10.5 23 -5 34 34 NNW 22 35 29.94 1014 10 16.09344 0 0
4:15 pm 16:15 Sunny 50 10 23 -5 35 35 NNW 18 30 29.94 1014 10 16.09344 0 0
4:35 pm 16:35 Sunny 49 9.6 23 -5 36 36 NNW 14 22 29.94 1014 10 16.09344 0 0
4:55 pm 16:55 Sunny 47 8.5 23 -5 38 38 NNW 16 26 29.97 1015 10 16.09344 0 0
5:15 pm 17:15 Clear 46 7.6 23 -5 41 41 NNW 13 20 30 1016 10 16.09344 0 0
5:35 pm 17:35 Clear 44 6.5 23 -5 44 44 NNW 12 19 30 1016 10 16.09344 0 0
5:55 pm 17:55 Clear 40 4.5 23 -5.1 50 50 NNW 9 15 30.03 1017 10 16.09344 0 0
6:15 pm 18:15 Clear 38 3.1 22 -5.6 53 53 NW 9 15 30.06 1018 10 16.09344 0 0
6:35 pm 18:35 Clear 37 2.9 23 -5 56 56 NNW 14 22 30.06 1018 10 16.09344 0 0
6:55 pm 18:55 Clear 37 2.5 22 -5.5 56 56 NW 8 13 30.06 1018 10 16.09344 0 0
7:15 pm 19:15 Clear 34 1.1 23 -5.2 63 63 NW 10 17 30.06 1018 10 16.09344 0 0
7:35 pm 19:35 Clear 35 1.5 23 -5.2 61 61 NW 9 15 30.09 1019 10 16.09344 0 0
7:55 pm 19:55 Clear 34 1.1 22 -5.5 62 62 NW 7 11 30.09 1019 10 16.09344 0 0
8:15 pm 20:15 Clear 34 1.2 23 -5.1 63 63 WNW 6 9 30.09 1019 10 16.09344 0 0
8:35 pm 20:35 Clear 34 1 23 -5 65 65 NW 9 15 30.09 1019 10 16.09344 0 0
8:55 pm 20:55 Clear 33 0.6 23 -5 66 66 WNW 8 13 30.12 1020 10 16.09344 0 0
9:15 pm 21:15 Clear 34 1.1 23 -4.9 65 65 NW 7 11 30.12 1020 10 16.09344 0 0
9:35 pm 21:35 Clear 34 1.1 23 -4.8 65 65 NW 9 15 30.12 1020 10 16.09344 0 0
9:55 pm 21:55 Clear 36 2 24 -4.7 62 62 WNW 7 11 30.12 1020 10 16.09344 0 0
10:15 pm 22:15 Clear 35 1.4 24 -4.7 64 64 WNW 6 9 30.12 1020 10 16.09344 0 0
10:35 pm 22:35 Clear 34 1.2 24 -4.5 66 66 WNW 7 11 30.12 1020 10 16.09344 0 0
10:55 pm 22:55 Clear 36 2 24 -4.6 62 62 NW 8 13 30.12 1020 10 16.09344 0 0
11:15 pm 23:15 Clear 36 2 24 -4.7 62 62 NW 9 15 30.12 1020 10 16.09344 0 0
11:35 pm 23:35 Clear 35 1.8 23 -4.9 61 61 NW 9 15 30.12 1020 10 16.09344 0 0
11:55 pm 23:55 Clear 35 1.8 23 -5 61 61 NW 9 15 30.12 1020 10 16.09344 0 0

Powered by AerisWeather